GW0143 Weather Reports


time (UTC)temp
C
wind
direction
speed
KPH
gust
KPH
rain 1hr
cm
rain 24hr
cm
rain mn
cm
humidity
%
barometer
mb
20260903042522 16 183 6.4 9.7 0.00 0.00 0.00 36 1026.1
20260903041522 16 141 3.2 6.4 0.00 0.00 0.00 36 1026.2
20260903040522 17 148 8.0 14.5 0.00 0.00 0.00 36 1026.1
20260903035516 17 98 4.8 8.0 0.00 0.00 0.00 33 1026.1
20260903034516 16 44 6.4 11.3 0.00 0.00 0.00 35 1026.1
20260903033517 17 229 6.4 11.3 0.00 0.00 0.00 32 1026.0
20260903032523 18 227 8.0 12.9 0.00 0.00 0.00 31 1025.8
20260903031517 18 245 9.7 14.5 0.00 0.00 0.00 31 1025.7
20260903030517 18 238 8.0 12.9 0.00 0.00 0.00 31 1025.6
20260903025517 18 252 9.7 16.1 0.00 0.00 0.00 30 1025.5
20260903024517 18 254 9.7 16.1 0.00 0.00 0.00 29 1025.4
20260903023558 19 258 11.3 16.1 0.00 0.00 0.00 29 1025.3
20260903022538 19 254 11.3 14.5 0.00 0.00 0.00 29 1025.3
20260903021518 20 259 12.9 20.9 0.00 0.00 0.00 27 1025.2
20260903020539 20 274 14.5 22.5 0.00 0.00 0.00 26 1025.1
20260903015538 20 282 14.5 24.1 0.00 0.00 0.00 26 1025.0
20260903014519 20 266 11.3 16.1 0.00 0.00 0.00 26 1024.9
20260903013519 20 264 11.3 16.1 0.00 0.00 0.00 25 1024.8
20260903012516 21 251 14.5 17.7 0.00 0.00 0.00 22 1024.8
20260903011519 21 245 12.9 20.9 0.00 0.00 0.00 22 1024.6
20260903010517 22 234 9.7 20.9 0.00 0.00 0.00 22 1024.7
20260903005537 23 233 14.5 20.9 0.00 0.00 0.00 20 1024.6
20260903004517 23 243 11.3 19.3 0.00 0.00 0.00 20 1024.7
20260903003537 23 246 16.1 29.0 0.00 0.00 0.00 20 1024.6
20260903002520 24 236 11.3 16.1 0.00 0.00 0.00 21 1024.6
20260903001517 24 241 11.3 17.7 0.00 0.00 0.00 21 1024.6
20260903000538 25 263 17.7 24.1 0.00 0.00 0.00 20 1024.6
20260902235518 25 246 12.9 20.9 0.00 0.00 0.00 20 1024.5
20260902234518 24 256 12.9 19.3 0.00 0.00 0.00 21 1024.6
20260902233521 24 251 9.7 14.5 0.00 0.00 0.00 21 1024.6
20260902232518 24 278 14.5 27.4 0.00 0.00 0.00 21 1024.7
20260902231518 24 294 11.3 17.7 0.00 0.00 0.00 21 1024.8
20260902230519 25 251 11.3 19.3 0.00 0.00 0.00 21 1024.8
20260902225516 25 224 12.9 20.9 0.00 0.00 0.00 21 1024.9
20260902224519 25 270 14.5 24.1 0.00 0.00 0.00 22 1024.9
20260902223539 25 262 17.7 27.4 0.00 0.00 0.00 21 1024.9
20260902222536 25 275 12.9 24.1 0.00 0.00 0.00 22 1025.0
20260902221517 25 283 14.5 24.1 0.00 0.00 0.00 22 1025.1
20260902220528 25 306 9.7 19.3 0.00 0.00 0.00 23 1025.2
20260902215518 25 296 12.9 20.9 0.00 0.00 0.00 23 1025.3
20260902214517 24 304 8.0 14.5 0.00 0.00 0.00 24 1025.4
20260902213517 25 298 8.0 14.5 0.00 0.00 0.00 24 1025.5
20260902212517 24 268 11.3 25.7 0.00 0.00 0.00 24 1025.6
20260902211523 24 216 9.7 19.3 0.00 0.00 0.00 24 1025.7
20260902210518 24 249 9.7 19.3 0.00 0.00 0.00 24 1025.9
20260902205518 24 283 6.4 20.9 0.00 0.00 0.00 24 1026.0
20260902204539 24 245 8.0 17.7 0.00 0.00 0.00 24 1026.1
20260902203538 24 244 8.0 14.5 0.00 0.00 0.00 24 1026.2
20260902202519 23 177 8.0 16.1 0.00 0.00 0.00 24 1026.3
20260902201519 23 250 9.7 17.7 0.00 0.00 0.00 25 1026.4
20260902200519 23 198 9.7 14.5 0.00 0.00 0.00 25 1026.5
20260902195519 24 135 6.4 14.5 0.00 0.00 0.00 25 1026.7
20260902194519 23 173 4.8 12.9 0.00 0.00 0.00 26 1026.8
20260902193516 23 195 11.3 27.4 0.00 0.00 0.00 25 1026.9
20260902192516 23 178 8.0 19.3 0.00 0.00 0.00 26 1027.0
20260902191520 22 194 11.3 19.3 0.00 0.00 0.00 26 1027.0
20260902190520 22 221 8.0 12.9 0.00 0.00 0.00 26 1027.1
20260902185520 22 14 9.7 17.7 0.00 0.00 0.00 26 1027.4
20260902184520 22 19 6.4 16.1 0.00 0.00 0.00 27 1027.5
20260902183521 22 293 8.0 16.1 0.00 0.00 0.00 27 1027.7
20260902182518 22 334 11.3 19.3 0.00 0.00 0.00 26 1027.8
20260902181518 22 316 11.3 19.3 0.00 0.00 0.00 26 1027.9
20260902180518 22 308 9.7 22.5 0.00 0.00 0.00 25 1028.0
20260902175519 22 290 8.0 16.1 0.00 0.00 0.00 27 1028.0
20260902174519 22 306 11.3 17.7 0.00 0.00 0.00 26 1028.1
20260902173519 22 289 14.5 30.6 0.00 0.00 0.00 27 1028.1
20260902172519 21 302 6.4 19.3 0.00 0.00 0.00 27 1028.3
20260902171539 21 290 11.3 19.3 0.00 0.00 0.00 28 1028.3
20260902170519 21 288 12.9 22.5 0.00 0.00 0.00 28 1028.3
20260902165539 21 252 12.9 22.5 0.00 0.00 0.00 29 1028.4
20260902164517 21 291 12.9 20.9 0.00 0.00 0.00 30 1028.4
20260902163540 20 348 3.2 6.4 0.00 0.00 0.00 33 1028.4
20260902162523 20 16 6.4 12.9 0.00 0.00 0.00 33 1028.3
20260902161523 20 316 9.7 14.5 0.00 0.00 0.00 34 1028.3
20260902160517 20 279 9.7 16.1 0.00 0.00 0.00 34 1028.4
20260902155538 20 300 6.4 12.9 0.00 0.00 0.00 35 1028.4
20260902154537 20 259 12.9 19.3 0.00 0.00 0.00 35 1028.5
20260902153518 20 270 6.4 20.9 0.00 0.00 0.00 36 1028.6
20260902152521 20 263 3.2 4.8 0.00 0.00 0.00 36 1028.5
20260902151601 20 194 1.6 3.2 0.00 0.00 0.00 36 1028.6
20260902150521 19 190 3.2 4.8 0.00 0.00 0.00 37 1028.6
20260902145521 18 208 3.2 4.8 0.00 0.00 0.00 38 1028.7
20260902144522 18 175 4.8 6.4 0.00 0.00 0.00 40 1028.7
20260902143522 17 151 4.8 8.0 0.00 0.00 0.00 42 1028.8
20260902142519 17 142 6.4 9.7 0.00 0.00 0.00 44 1028.7
20260902141519 16 164 8.0 11.3 0.00 0.00 0.00 48 1028.7
20260902140520 15 145 9.7 12.9 0.00 0.00 0.00 51 1028.7
20260902135519 14 155 8.0 11.3 0.00 0.00 0.00 54 1028.7
20260902134540 13 147 8.0 11.3 0.00 0.00 0.00 56 1028.7
20260902133540 12 131 8.0 9.7 0.00 0.00 0.00 60 1028.7
20260902132520 11 155 11.3 14.5 0.00 0.00 0.00 63 1028.5
20260902131521 10 169 11.3 14.5 0.00 0.00 0.00 66 1028.5
20260902130521 10 155 8.0 14.5 0.00 0.00 0.00 66 1028.4
20260902125521 10 164 12.9 16.1 0.00 0.00 0.00 66 1028.2
20260902124521 8 150 11.3 14.5 0.00 0.00 0.00 69 1028.2
20260902123521 8 149 9.7 12.9 0.00 0.00 0.00 75 1028.3
20260902122542 8 159 6.4 9.7 0.00 0.00 0.00 75 1028.2
20260902121522 8 175 6.4 8.0 0.00 0.00 0.00 75 1028.2
20260902120521 8 149 8.0 9.7 0.00 0.00 0.00 73 1028.1
20260902115525 8 241 1.6 8.0 0.00 0.00 0.00 74 1028.0
20260902114605 8 30 1.6 6.4 0.00 0.00 0.00 74 1028.1
20260902113522 8 184 6.4 12.9 0.00 0.00 0.00 74 1027.9
20260902112516 8 175 6.4 9.7 0.00 0.00 0.00 74 1027.9
20260902111516 8 87 4.8 9.7 0.00 0.00 0.00 74 1027.8
20260902110525 10 60 6.4 8.0 0.00 0.00 0.00 73 1027.8
20260902105523 10 171 9.7 12.9 0.00 0.00 0.00 69 1027.7
20260902104517 10 144 8.0 9.7 0.00 0.00 0.00 69 1027.8
20260902103517 10 138 8.0 9.7 0.00 0.00 0.00 67 1027.7
20260902102518 10 141 9.7 11.3 0.00 0.00 0.00 70 1027.8
20260902101518 10 141 9.7 12.9 0.00 0.00 0.00 69 1027.8
20260902100547 10 139 6.4 8.0 0.00 0.00 0.00 72 1027.9
20260902095538 10 140 9.7 12.9 0.00 0.00 0.00 74 1027.9
20260902094538 11 135 8.0 9.7 0.00 0.00 0.00 73 1027.9
20260902093548 11 120 4.8 8.0 0.00 0.00 0.00 71 1027.9
20260902092527 11 91 4.8 6.4 0.00 0.00 0.00 72 1027.9
20260902091519 11 107 4.8 9.7 0.00 0.00 0.00 72 1027.9
20260902090519 12 71 6.4 9.7 0.00 0.00 0.00 71 1027.9
20260902085519 12 257 4.8 8.0 0.00 0.00 0.00 72 1027.8
20260902084519 12 209 9.7 14.5 0.00 0.00 0.00 72 1027.8
20260902083519 12 186 12.9 16.1 0.00 0.00 0.00 71 1027.8
20260902082519 12 156 9.7 14.5 0.00 0.00 0.00 71 1027.8
20260902081519 12 158 11.3 16.1 0.00 0.00 0.00 71 1028.0
20260902080529 11 174 3.2 6.4 0.00 0.00 0.00 74 1028.1
20260902075520 11 162 9.7 12.9 0.00 0.00 0.00 73 1027.9
20260902074520 12 158 6.4 8.0 0.00 0.00 0.00 72 1028.0
20260902073600 12 153 9.7 11.3 0.00 0.00 0.00 70 1028.0
20260902072540 12 165 9.7 12.9 0.00 0.00 0.00 69 1027.9
20260902071521 13 162 8.0 12.9 0.00 0.00 0.00 67 1028.0
20260902070541 13 178 11.3 16.1 0.00 0.00 0.00 65 1027.9
20260902065538 13 175 11.3 16.1 0.00 0.00 0.00 65 1028.0
20260902064521 13 167 11.3 16.1 0.00 0.00 0.00 67 1027.9
20260902063521 14 183 8.0 12.9 0.00 0.00 0.00 63 1027.9
20260902062522 13 226 8.0 11.3 0.00 0.00 0.00 62 1027.9
20260902061542 13 227 8.0 11.3 0.00 0.00 0.00 64 1027.9
20260902060522 12 190 9.7 12.9 0.00 0.00 0.00 69 1027.8
20260902055516 12 222 8.0 11.3 0.00 0.00 0.00 65 1027.9
20260902054516 11 176 8.0 11.3 0.00 0.00 0.00 73 1027.9
20260902053531 11 151 6.4 8.0 0.00 0.00 0.00 74 1027.9
20260902052523 11 138 6.4 9.7 0.00 0.00 0.00 73 1027.9
20260902051537 11 143 6.4 9.7 0.00 0.00 0.00 73 1028.0
20260902050517 12 106 4.8 6.4 0.00 0.00 0.00 68 1028.0
20260902045552 12 79 6.4 8.0 0.00 0.00 0.00 69 1028.1
20260902044532 13 146 4.8 6.4 0.00 0.00 0.00 68 1028.1
20260902043518 13 141 9.7 12.9 0.00 0.00 0.00 67 1028.1